SCP
0 0 0 0 0 0 0 0 0 0 0 0 0 0 0 0 0 0 0 0 0 0 0 0 0 0 0 0 0 0 0 0 0 0 0 0 0 0 0 0 0 0 0
0 0 0 0 0 0 0 0 0 0 0 0 0 0 0 0 0 0 0 0 0 0 0 0 -0 -0 -0 -0 -0 0 0 0 0 0 0 0 0 0 0 0 0 0 0
0 0 0 0 0 0 0 0 0 0 0 0 0 0 0 0 0 0 0 0 0 0 0 -0 -0 -0 0 0 0 0 0 -0 0 0 0 0 0 0 0 0 0 0 0
0 0 0 0 0 0 0 0 0 0 0 0 0 0 0 0 0 0 0 0 0 0 0 0 0 0 -0 0 0 0 -0 0 0 0 0 0 0 0 0 0 0 0 0
0 0 0 0 0 0 0 0 0 0 0 0 0 0 0 0 0 0 0 0 0 0 0 0 0 0 0 0 -0 -0 0 0 0 0 0 0 0 0 0 0 0 0 0
0 0 0 0 0 0 -0 0 0 0 0 0 0 0 0 0 0 0 0 0 0 0 0 0 0 0 0 0 0 -0 0 0 0 0 0 0 0 0 0 0 0 0 0
0 0 0 0 0 0 0 0 0 0 0 0 0 0 0 0 0 0 0 0 0 0 0 0 0 0 0 0 -0 -0 0 0 0 0 0 0 0 0 0 0 0 0 0
0 0 0 0 0 0 0 0 0 0 0 0 0 0 0 0 0 0 0 0 0 0 -0 -0 -0 -0 -0 0 0 0 0 0 0 0 0 0 0 0 0 0 0 0 0
0 0 0 0 0 0 0 0 0 0 0 0 0 0 0 0 0 -0 -0 0 0 -0 -0 -0 -0 -0 -0 -0 0 0 0 0 0 0 0 0 0 0 0 0 0 0 0
0 0 0 0 0 0 0 0 -0 -0 -0 -0 -0 -0 -0 -0 -0 -0 -0 0 0 -0 0 -0 -0 0 0 0 0 0 0 0 0 0 0 0 0 0 0 0 0 0 0
0 0 0 0 -0 -0 -0 -0 -0 0 -0 -0 -0 -0 -0 -0 -0 -0 -0 0 0 -0 -0 0 0 0 0 0 0 0 0 0 0 0 0 0 0 0 0 0 0 0 0
0 0 0 0 -0 -0 0 -0 -0 0 0 -0 -0 -0 -0 -0 -0 0 -0 -0 0 0 0 0 0 0 0 0 0 0 0 0 0 0 0 0 0 0 0 0 0 0 0
0 0 0 0 0 0 0 -0 -0 -0 -0 -0 -0 -0 -0 -0 -0 0 0 0 0 0 0 0 0 0 0 0 0 0 0 0 0 0 0 0 0 0 0 0 0 0 0
0 0 0 0 0 0 0 0 0 0 -0 -0 -0 -0 -0 -0 -0 -0 0 0 0 0 0 0 0 0 0 0 0 0 0 0 0 0 0 0 0 0 0 0 0 0 0
0 0 0 0 0 0 0 0 0 0 0 0 0 0 0 -0 -0 0 0 0 0 0 0 0 0 0 0 0 0 0 0 0 0 0 0 0 0 0 0 0 0 0 0
0 0 0 0 0 0 0 0 0 0 0 0 0 0 0 0 0 0 0 0 0 0 0 0 0 0 0 0 0 0 0 0 0 0 0 0 0 0 0 0 0 0 0
0 0 0 0 0 0 0 0 0 -0 -0 -0 -0 0 0 0 0 0 0 0 0 0 0 0 0 0 0 0 0 0 0 0 0 0 0 0 0 0 0 0 0 0 0
0 0 0 0 0 0 0 0 0 0 0 -0 -0 0 0 0 0 0 0 0 0 0 0 0 0 0 0 0 0 0 0 0 0 0 0 0 0 0 0 0 0 0 0
0 0 0 0 0 0 0 0 0 0 0 -0 0 0 0 0 0 0 0 0 0 0 0 0 0 0 0 0 0 0 0 0 0 0 0 0 0 0 0 0 0 0 0
0 0 0 0 0 0 0 0 0 0 0 0 0 0 0 0 0 0 0 0 0 0 0 0 0 0 0 0 0 0 0 0 0 0 0 0 0 0 0 0 0 0 0
0 0 0 0 0 0 0 0 0 0 0 0 0 0 0 0 0 0 0 0 0 0 0 0 0 0 0 0 0 0 0 0 0 0 0 0 0 0 0 0 0 0 0
0 0 0 0 0 0 0 0 0 0 0 0 0 0 0 0 0 0 0 0 0 0 0 0 0 0 0 0 0 0 0 0 0 0 0 0 0 0 0 0 0 0 0
0 0 0 0 0 0 0 0 0 0 0 0 0 0 0 0 0 0 0 -0 0 0 0 0 0 0 0 0 0 0 0 0 0 0 0 0 0 0 0 0 0 0 0
0 0 0 0 0 0 0 0 0 0 0 0 0 0 0 0 0 -0 0 0 0 0 0 0 0 0 0 0 0 0 0 0 0 0 0 0 0 0 0 0 0 0 0
0 0 0 0 0 0 0 0 0 0 0 0 0 0 0 0 0 0 0 0 0 0 0 0 0 0 0 0 0 0 0 0 0 0 0 0 0 0 0 0 0 0 0
0 0 0 0 0 0 0 0 0 0 0 0 0 0 0 0 0 0 0 0 0 0 0 0 0 0 0 0 0 0 0 0 0 0 0 0 0 0 0 0 0 0 0
Wind_Speed_500mb
10 5 2 7 11 13 13 17 20 21 23 28 31 31 33 32 38 46 48 45 39 41 40 37 42 48 39 38 35 32 16 27 31 42 43 38 32 27 20 17 14 14 12
9 9 7 6 8 16 16 16 16 20 24 22 29 27 27 28 32 38 44 40 39 43 43 43 45 43 40 35 29 22 21 22 26 41 42 37 31 24 20 17 17 14 19
8 8 8 10 11 16 19 17 20 22 24 22 25 27 29 31 31 32 29 29 37 42 41 41 42 40 39 37 33 30 22 24 19 17 35 35 29 24 24 20 18 23 24
12 7 5 9 16 18 25 20 20 21 21 21 21 23 26 28 27 26 25 27 29 29 25 25 28 26 25 28 24 20 20 21 22 16 16 23 24 24 24 25 27 28 29
18 11 4 7 19 24 24 23 22 20 18 20 20 23 21 17 15 13 15 16 17 21 23 23 24 20 18 17 12 11 17 23 23 24 24 24 27 28 30 29 32 33 34
22 16 11 9 17 27 27 26 22 23 20 19 19 18 17 16 17 18 17 18 20 19 17 19 20 22 20 18 18 19 19 23 28 30 33 35 30 29 34 36 37 38 42
24 23 18 13 18 24 29 28 25 23 22 21 19 15 12 10 12 15 17 18 18 19 20 20 19 18 17 16 15 15 17 19 19 17 22 25 29 29 33 39 42 44 46
26 27 24 18 21 24 27 29 29 27 24 23 21 18 13 12 13 15 16 18 19 19 18 17 16 15 13 11 11 11 10 10 11 14 19 24 29 34 37 39 39 39 42
31 30 27 22 23 24 26 27 28 29 27 23 19 17 16 16 17 19 20 20 19 18 17 15 13 11 9 4 0 4 8 11 14 18 23 28 32 36 38 40 42 42 45
38 32 29 26 25 25 25 25 25 25 24 25 25 23 22 21 20 20 20 20 16 14 12 9 6 3 4 9 12 15 19 23 27 31 36 39 42 42 42 42 43 45 46
44 36 34 33 30 27 27 28 27 26 26 25 23 22 21 19 17 15 13 12 11 11 11 10 12 16 21 25 27 30 33 36 40 43 46 49 52 53 53 51 50 49 52
55 47 42 38 35 35 36 34 32 31 29 28 27 25 23 22 21 19 17 15 16 18 19 20 24 29 35 40 44 44 45 48 51 55 57 59 60 60 58 55 54 55 55
65 59 53 46 44 42 44 43 41 39 37 34 32 30 29 27 26 25 24 24 25 31 32 34 38 43 50 55 57 56 56 57 58 60 59 61 61 59 57 62 63 63 62
72 69 63 59 55 51 50 51 50 49 47 44 42 40 37 36 35 33 31 33 38 41 43 46 49 54 58 61 62 59 56 55 56 56 56 58 61 63 65 66 69 69 69
73 75 73 70 65 60 58 57 60 56 52 47 42 39 37 38 32 39 42 44 48 54 56 57 57 56 56 59 50 43 45 50 57 62 64 66 69 71 70 70 73 75 78
88 81 83 80 78 74 68 64 61 57 52 51 51 54 55 55 57 57 58 62 59 56 50 55 56 55 55 43 32 30 33 47 56 57 59 60 63 66 70 73 74 77 82
100 89 87 87 85 88 85 79 72 64 61 67 69 72 75 76 78 82 85 83 77 60 67 61 51 42 36 34 39 41 43 50 52 54 58 58 55 54 52 54 61 71 81
99 101 95 91 91 88 93 90 82 75 70 68 67 72 76 83 88 92 90 87 78 76 61 41 37 31 34 38 43 48 47 43 42 43 43 41 40 42 45 48 54 62 69
94 99 99 96 96 94 90 92 92 85 79 71 72 74 78 75 59 56 53 54 51 49 37 35 24 31 39 35 29 25 21 22 27 31 32 35 38 42 47 50 54 56 57
86 91 97 94 92 97 98 96 92 88 83 84 86 82 66 53 46 30 26 17 11 19 23 23 25 20 15 12 13 17 22 27 29 30 33 37 39 43 47 46 47 47 47
78 86 85 90 91 90 90 91 93 90 88 80 70 53 42 35 20 16 10 7 9 10 15 15 9 3 5 9 15 20 23 26 31 36 38 40 45 47 44 41 40 39 38
63 70 75 86 87 85 80 77 77 74 61 49 32 20 22 17 15 14 12 7 5 9 17 11 10 9 9 14 20 25 32 36 38 41 45 46 45 45 40 37 40 44 38
56 57 59 73 75 74 66 59 56 48 38 41 38 25 20 10 9 5 3 13 5 10 7 3 6 9 15 22 29 33 36 38 41 43 45 45 41 37 37 37 38 41 42
43 41 47 52 52 45 45 50 62 59 45 32 23 13 11 24 25 35 27 28 23 22 19 14 13 19 25 27 29 31 32 33 37 41 42 40 37 35 33 37 36 32 41
38 44 44 46 54 64 64 55 42 31 30 22 30 35 37 41 36 28 26 28 26 23 22 21 21 21 24 27 29 33 36 38 40 39 37 37 36 33 35 36 41 32 41
58 61 63 54 45 42 45 52 47 47 54 53 59 50 35 28 32 38 35 30 27 25 22 23 24 27 31 35 39 39 41 41 41 40 41 41 40 41 37 33 38 43 49
Wind_Direction_500mb
218 214 116 119 142 140 122 116 110 114 114 111 112 110 112 100 110 115 116 112 125 135 146 154 160 167 166 171 173 177 174 185 178 163 164 164 169 175 188 203 225 239 273
189 193 204 178 150 164 145 134 117 115 110 107 117 122 125 118 118 125 119 119 122 130 135 142 146 150 154 157 160 168 169 179 182 169 171 178 184 192 208 225 230 259 278
185 175 188 193 174 168 164 148 146 134 144 122 118 128 132 130 126 126 128 125 128 129 129 133 133 141 145 146 145 150 149 159 177 190 185 189 197 208 210 220 246 260 263
205 204 194 193 185 175 180 171 159 158 147 146 149 136 130 129 128 128 130 133 136 138 135 136 131 132 139 144 146 159 179 173 185 195 197 204 212 215 225 240 245 256 267
211 217 222 208 190 184 181 182 173 160 155 152 143 143 148 151 146 144 140 143 141 142 140 140 143 146 149 153 160 173 193 209 212 223 231 230 231 233 241 246 247 257 261
212 211 217 216 189 186 185 185 182 181 174 167 160 151 145 149 155 163 173 177 179 176 177 176 180 188 196 201 204 203 204 217 231 239 243 248 251 254 252 250 250 251 243
205 208 217 212 190 184 191 195 195 195 193 191 190 199 210 203 190 192 193 190 187 186 191 197 201 202 210 216 219 223 219 217 215 221 233 245 249 259 261 262 264 271 267
203 206 213 211 194 188 188 191 197 203 205 207 208 213 212 198 182 172 164 157 155 158 160 161 166 169 172 180 188 193 205 219 233 237 245 253 259 259 260 264 265 261 258
203 203 210 216 203 195 190 191 193 197 200 198 191 176 161 152 151 146 142 142 144 145 144 144 142 136 142 151 226 313 306 303 297 288 282 279 278 277 276 273 267 261 259
201 201 203 210 211 200 189 183 179 178 176 174 170 166 161 156 149 144 141 141 143 149 152 149 154 191 255 276 284 289 290 287 283 281 280 279 280 279 277 273 267 266 265
196 199 203 205 206 199 190 184 177 175 176 175 174 174 170 168 164 165 171 174 183 203 212 230 252 267 276 280 282 284 285 286 287 285 284 283 283 281 280 276 272 271 267
202 200 204 204 202 199 195 188 186 188 187 183 181 181 181 187 194 202 209 215 226 237 242 253 266 274 277 278 279 281 284 285 285 285 285 286 288 287 286 283 277 272 268
206 203 207 205 204 201 201 197 197 197 196 196 199 203 206 212 218 225 234 239 246 255 261 265 268 275 280 283 286 287 288 290 291 290 294 294 294 292 285 278 275 272 267
207 205 207 212 209 207 207 206 206 206 207 209 216 225 230 230 236 238 243 250 257 266 276 283 288 287 288 290 290 290 290 291 291 293 297 298 294 290 287 284 279 275 269
210 209 207 211 214 213 214 215 215 217 219 223 230 235 237 241 228 249 261 269 276 281 284 286 289 289 290 292 294 288 289 289 291 294 294 298 295 292 289 284 279 274 269
211 212 212 210 213 218 217 220 224 229 233 236 241 249 257 265 273 276 279 281 281 285 285 287 290 291 296 293 275 278 287 299 297 295 296 296 295 292 289 283 282 278 275
216 215 216 216 216 220 222 222 223 226 234 242 250 257 264 269 269 272 277 280 286 286 287 293 292 295 294 293 287 283 287 280 286 293 298 299 299 298 293 288 283 280 279
221 220 218 218 220 222 226 227 228 230 232 241 251 259 263 265 270 274 280 283 283 283 285 279 286 285 285 291 294 288 286 287 294 298 301 304 307 306 303 301 298 294 291
224 222 223 225 224 225 228 231 233 235 239 242 251 258 263 270 280 283 277 275 271 270 264 260 285 292 299 297 292 294 308 318 314 310 311 312 314 313 310 310 307 303 301
233 230 223 225 227 229 231 233 236 237 241 246 251 259 270 278 282 275 270 258 260 272 275 272 267 285 296 295 318 331 330 326 325 326 326 322 319 316 316 315 316 312 309
231 231 226 226 230 231 231 234 237 239 239 243 251 257 261 262 225 175 131 100 92 90 63 28 51 27 341 332 334 342 344 339 334 330 327 324 323 324 323 322 321 318 310
228 228 224 221 226 232 234 234 236 236 232 232 232 191 156 140 126 121 114 66 44 54 30 355 353 9 13 11 7 355 349 345 338 336 334 331 325 320 322 330 329 330 312
215 217 217 220 220 223 223 224 225 220 195 161 146 145 155 173 179 145 183 75 8 344 38 109 78 45 23 8 1 358 358 354 350 346 344 343 340 335 330 329 326 318 312
199 198 200 200 203 205 198 179 158 148 146 148 147 156 162 144 121 101 100 97 103 106 106 90 54 37 29 19 10 2 357 355 352 351 351 347 347 344 345 345 336 330 335
174 161 162 159 150 145 142 146 154 160 167 172 149 126 114 119 121 106 113 112 112 108 88 69 52 35 28 22 18 16 11 3 359 355 351 351 350 349 345 343 347 338 335
147 145 148 150 163 188 206 192 173 161 148 134 133 134 129 131 133 127 121 116 101 87 77 66 56 49 44 38 30 22 16 13 10 7 3 358 353 352 345 336 332 334 331
Wind_Speed_850mb
10 5 2 7 11 13 13 17 20 21 23 28 31 31 33 32 38 46 48 45 39 41 40 37 42 48 39 38 35 32 16 27 31 42 43 38 32 27 20 17 14 14 12
9 9 7 6 8 16 16 16 16 20 24 22 29 27 27 28 32 38 44 40 39 43 43 43 45 43 40 35 29 22 21 22 26 41 42 37 31 24 20 17 17 14 19
8 8 8 10 11 16 19 17 20 22 24 22 25 27 29 31 31 32 29 29 37 42 41 41 42 40 39 37 33 30 22 24 19 17 35 35 29 24 24 20 18 23 24
12 7 5 9 16 18 25 20 20 21 21 21 21 23 26 28 27 26 25 27 29 29 25 25 28 26 25 28 24 20 20 21 22 16 16 23 24 24 24 25 27 28 29
18 11 4 7 19 24 24 23 22 20 18 20 20 23 21 17 15 13 15 16 17 21 23 23 24 20 18 17 12 11 17 23 23 24 24 24 27 28 30 29 32 33 34
22 16 11 9 17 27 27 26 22 23 20 19 19 18 17 16 17 18 17 18 20 19 17 19 20 22 20 18 18 19 19 23 28 30 33 35 30 29 34 36 37 38 42
24 23 18 13 18 24 29 28 25 23 22 21 19 15 12 10 12 15 17 18 18 19 20 20 19 18 17 16 15 15 17 19 19 17 22 25 29 29 33 39 42 44 46
26 27 24 18 21 24 27 29 29 27 24 23 21 18 13 12 13 15 16 18 19 19 18 17 16 15 13 11 11 11 10 10 11 14 19 24 29 34 37 39 39 39 42
31 30 27 22 23 24 26 27 28 29 27 23 19 17 16 16 17 19 20 20 19 18 17 15 13 11 9 4 0 4 8 11 14 18 23 28 32 36 38 40 42 42 45
38 32 29 26 25 25 25 25 25 25 24 25 25 23 22 21 20 20 20 20 16 14 12 9 6 3 4 9 12 15 19 23 27 31 36 39 42 42 42 42 43 45 46
44 36 34 33 30 27 27 28 27 26 26 25 23 22 21 19 17 15 13 12 11 11 11 10 12 16 21 25 27 30 33 36 40 43 46 49 52 53 53 51 50 49 52
55 47 42 38 35 35 36 34 32 31 29 28 27 25 23 22 21 19 17 15 16 18 19 20 24 29 35 40 44 44 45 48 51 55 57 59 60 60 58 55 54 55 55
65 59 53 46 44 42 44 43 41 39 37 34 32 30 29 27 26 25 24 24 25 31 32 34 38 43 50 55 57 56 56 57 58 60 59 61 61 59 57 62 63 63 62
72 69 63 59 55 51 50 51 50 49 47 44 42 40 37 36 35 33 31 33 38 41 43 46 49 54 58 61 62 59 56 55 56 56 56 58 61 63 65 66 69 69 69
73 75 73 70 65 60 58 57 60 56 52 47 42 39 37 38 32 39 42 44 48 54 56 57 57 56 56 59 50 43 45 50 57 62 64 66 69 71 70 70 73 75 78
88 81 83 80 78 74 68 64 61 57 52 51 51 54 55 55 57 57 58 62 59 56 50 55 56 55 55 43 32 30 33 47 56 57 59 60 63 66 70 73 74 77 82
100 89 87 87 85 88 85 79 72 64 61 67 69 72 75 76 78 82 85 83 77 60 67 61 51 42 36 34 39 41 43 50 52 54 58 58 55 54 52 54 61 71 81
99 101 95 91 91 88 93 90 82 75 70 68 67 72 76 83 88 92 90 87 78 76 61 41 37 31 34 38 43 48 47 43 42 43 43 41 40 42 45 48 54 62 69
94 99 99 96 96 94 90 92 92 85 79 71 72 74 78 75 59 56 53 54 51 49 37 35 24 31 39 35 29 25 21 22 27 31 32 35 38 42 47 50 54 56 57
86 91 97 94 92 97 98 96 92 88 83 84 86 82 66 53 46 30 26 17 11 19 23 23 25 20 15 12 13 17 22 27 29 30 33 37 39 43 47 46 47 47 47
78 86 85 90 91 90 90 91 93 90 88 80 70 53 42 35 20 16 10 7 9 10 15 15 9 3 5 9 15 20 23 26 31 36 38 40 45 47 44 41 40 39 38
63 70 75 86 87 85 80 77 77 74 61 49 32 20 22 17 15 14 12 7 5 9 17 11 10 9 9 14 20 25 32 36 38 41 45 46 45 45 40 37 40 44 38
56 57 59 73 75 74 66 59 56 48 38 41 38 25 20 10 9 5 3 13 5 10 7 3 6 9 15 22 29 33 36 38 41 43 45 45 41 37 37 37 38 41 42
43 41 47 52 52 45 45 50 62 59 45 32 23 13 11 24 25 35 27 28 23 22 19 14 13 19 25 27 29 31 32 33 37 41 42 40 37 35 33 37 36 32 41
38 44 44 46 54 64 64 55 42 31 30 22 30 35 37 41 36 28 26 28 26 23 22 21 21 21 24 27 29 33 36 38 40 39 37 37 36 33 35 36 41 32 41
58 61 63 54 45 42 45 52 47 47 54 53 59 50 35 28 32 38 35 30 27 25 22 23 24 27 31 35 39 39 41 41 41 40 41 41 40 41 37 33 38 43 49
Wind_Direction_850mb
218 214 116 119 142 140 122 116 110 114 114 111 112 110 112 100 110 115 116 112 125 135 146 154 160 167 166 171 173 177 174 185 178 163 164 164 169 175 188 203 225 239 273
189 193 204 178 150 164 145 134 117 115 110 107 117 122 125 118 118 125 119 119 122 130 135 142 146 150 154 157 160 168 169 179 182 169 171 178 184 192 208 225 230 259 278
185 175 188 193 174 168 164 148 146 134 144 122 118 128 132 130 126 126 128 125 128 129 129 133 133 141 145 146 145 150 149 159 177 190 185 189 197 208 210 220 246 260 263
205 204 194 193 185 175 180 171 159 158 147 146 149 136 130 129 128 128 130 133 136 138 135 136 131 132 139 144 146 159 179 173 185 195 197 204 212 215 225 240 245 256 267
211 217 222 208 190 184 181 182 173 160 155 152 143 143 148 151 146 144 140 143 141 142 140 140 143 146 149 153 160 173 193 209 212 223 231 230 231 233 241 246 247 257 261
212 211 217 216 189 186 185 185 182 181 174 167 160 151 145 149 155 163 173 177 179 176 177 176 180 188 196 201 204 203 204 217 231 239 243 248 251 254 252 250 250 251 243
205 208 217 212 190 184 191 195 195 195 193 191 190 199 210 203 190 192 193 190 187 186 191 197 201 202 210 216 219 223 219 217 215 221 233 245 249 259 261 262 264 271 267
203 206 213 211 194 188 188 191 197 203 205 207 208 213 212 198 182 172 164 157 155 158 160 161 166 169 172 180 188 193 205 219 233 237 245 253 259 259 260 264 265 261 258
203 203 210 216 203 195 190 191 193 197 200 198 191 176 161 152 151 146 142 142 144 145 144 144 142 136 142 151 226 313 306 303 297 288 282 279 278 277 276 273 267 261 259
201 201 203 210 211 200 189 183 179 178 176 174 170 166 161 156 149 144 141 141 143 149 152 149 154 191 255 276 284 289 290 287 283 281 280 279 280 279 277 273 267 266 265
196 199 203 205 206 199 190 184 177 175 176 175 174 174 170 168 164 165 171 174 183 203 212 230 252 267 276 280 282 284 285 286 287 285 284 283 283 281 280 276 272 271 267
202 200 204 204 202 199 195 188 186 188 187 183 181 181 181 187 194 202 209 215 226 237 242 253 266 274 277 278 279 281 284 285 285 285 285 286 288 287 286 283 277 272 268
206 203 207 205 204 201 201 197 197 197 196 196 199 203 206 212 218 225 234 239 246 255 261 265 268 275 280 283 286 287 288 290 291 290 294 294 294 292 285 278 275 272 267
207 205 207 212 209 207 207 206 206 206 207 209 216 225 230 230 236 238 243 250 257 266 276 283 288 287 288 290 290 290 290 291 291 293 297 298 294 290 287 284 279 275 269
210 209 207 211 214 213 214 215 215 217 219 223 230 235 237 241 228 249 261 269 276 281 284 286 289 289 290 292 294 288 289 289 291 294 294 298 295 292 289 284 279 274 269
211 212 212 210 213 218 217 220 224 229 233 236 241 249 257 265 273 276 279 281 281 285 285 287 290 291 296 293 275 278 287 299 297 295 296 296 295 292 289 283 282 278 275
216 215 216 216 216 220 222 222 223 226 234 242 250 257 264 269 269 272 277 280 286 286 287 293 292 295 294 293 287 283 287 280 286 293 298 299 299 298 293 288 283 280 279
221 220 218 218 220 222 226 227 228 230 232 241 251 259 263 265 270 274 280 283 283 283 285 279 286 285 285 291 294 288 286 287 294 298 301 304 307 306 303 301 298 294 291
224 222 223 225 224 225 228 231 233 235 239 242 251 258 263 270 280 283 277 275 271 270 264 260 285 292 299 297 292 294 308 318 314 310 311 312 314 313 310 310 307 303 301
233 230 223 225 227 229 231 233 236 237 241 246 251 259 270 278 282 275 270 258 260 272 275 272 267 285 296 295 318 331 330 326 325 326 326 322 319 316 316 315 316 312 309
231 231 226 226 230 231 231 234 237 239 239 243 251 257 261 262 225 175 131 100 92 90 63 28 51 27 341 332 334 342 344 339 334 330 327 324 323 324 323 322 321 318 310
228 228 224 221 226 232 234 234 236 236 232 232 232 191 156 140 126 121 114 66 44 54 30 355 353 9 13 11 7 355 349 345 338 336 334 331 325 320 322 330 329 330 312
215 217 217 220 220 223 223 224 225 220 195 161 146 145 155 173 179 145 183 75 8 344 38 109 78 45 23 8 1 358 358 354 350 346 344 343 340 335 330 329 326 318 312
199 198 200 200 203 205 198 179 158 148 146 148 147 156 162 144 121 101 100 97 103 106 106 90 54 37 29 19 10 2 357 355 352 351 351 347 347 344 345 345 336 330 335
174 161 162 159 150 145 142 146 154 160 167 172 149 126 114 119 121 106 113 112 112 108 88 69 52 35 28 22 18 16 11 3 359 355 351 351 350 349 345 343 347 338 335
147 145 148 150 163 188 206 192 173 161 148 134 133 134 129 131 133 127 121 116 101 87 77 66 56 49 44 38 30 22 16 13 10 7 3 358 353 352 345 336 332 334 331